This is the latest recevied weather packets stored in our database for station/object KC3UTO. If no packets are shown the sender has not sent any weather packets the latest 10 day(s).
| Time | Temp. | Humidity | Pressure | Rain* | Wind** | Luminosity | Snow |
|---|---|---|---|---|---|---|---|
| 1777520635 | 8.89° C | 96% | 1007.9 hPa | 1.78 mm | - | 0 W/m² | - |
| 1777520332 | 8.89° C | 96% | 1008.1 hPa | 3.05 mm | - | 0 W/m² | - |
| 1777520030 | 8.89° C | 96% | 1008.1 hPa | 5.33 mm | - | 0 W/m² | - |
| 1777519726 | 8.89° C | 96% | 1008.5 hPa | 5.33 mm | - | 0 W/m² | - |
| 1777519423 | 8.89° C | 95% | 1008.7 hPa | 4.32 mm | - | 0 W/m² | - |
| 1777519120 | 8.89° C | 95% | 1009 hPa | 4.83 mm | - | 0 W/m² | - |
| 1777518816 | 8.89° C | 95% | 1008.8 hPa | 6.1 mm | - | 0 W/m² | - |
| 1777518512 | 8.89° C | 95% | 1009.1 hPa | 6.6 mm | - | 0 W/m² | - |
| 1777518207 | 8.89° C | 95% | 1009.4 hPa | 13.21 mm | - | 0 W/m² | - |
| 1777517904 | 8.89° C | 94% | 1009.2 hPa | 16.76 mm | - | 0 W/m² | - |
| 1777517600 | 8.89° C | 94% | 1009 hPa | 4.32 mm | - | 0 W/m² | - |
| 1777517298 | 8.89° C | 93% | 1008.3 hPa | 3.56 mm | - | 0 W/m² | - |
| 1777516997 | 8.89° C | 93% | 1008.6 hPa | 1.78 mm | - | 0 W/m² | - |
| 1777516694 | 9.44° C | 93% | 1008.6 hPa | 1.27 mm | - | 0 W/m² | - |
| 1777516390 | 8.89° C | 93% | 1008.6 hPa | 0.51 mm | - | 0 W/m² | - |
| 1777516086 | 8.89° C | 93% | 1008.6 hPa | 0 mm | - | 0 W/m² | - |
| 1777515783 | 8.89° C | 93% | 1008.7 hPa | 0 mm | - | 0 W/m² | - |
| 1777515479 | 8.89° C | 93% | 1008.6 hPa | 0 mm | - | 0 W/m² | - |
| 1777515176 | 8.89° C | 93% | 1008.6 hPa | 0 mm | - | 0 W/m² | - |
| 1777514872 | 8.89° C | 93% | 1008.7 hPa | 0 mm | - | 0 W/m² | - |
| 1777514569 | 8.89° C | 93% | 1008.7 hPa | 0 mm | - | 0 W/m² | - |
| 1777514267 | 8.89° C | 93% | 1009.1 hPa | 0.51 mm | - | 0 W/m² | - |
| 1777513963 | 8.89° C | 93% | 1008.7 hPa | 0.51 mm | - | 0 W/m² | - |
| 1777513661 | 8.89° C | 93% | 1008.5 hPa | 1.27 mm | - | 0 W/m² | - |
| 1777513358 | 9.44° C | 94% | 1008.4 hPa | 3.05 mm | - | 0 W/m² | - |
* Rain latest hour (hover to see other rain measurements)
** Current wind speed in m/s (hover to see current wind gust speed)